Location: Bogis-Bossey
(46.3500°N, 6.1667°E)
Time: 17:59:48
(UTC+00:00)

DELTA 2 R/B (1) - Pass Details

Date: 17 August 2022
Orbit: 790 x 802 km, 39.6° (Epoch: 30 September)

Event Time Altitude Azimuth Distance (km) Brightness Sun altitude
Rises 21:02:57 0° 242° (WSW) 3,289 6.9 -20.9°
Reaches altitude 10° 21:05:34 10° 234° (SW) 2,362 6.1 -21.2°
Enters shadow 21:09:51 35° 188° (S) 1,259 4.2 -21.6°
